Temperature
20 19 19 19 19 20 20 20 19 20 20 19 18 18 18 18 17 17 17 17 18 18 19 19 19 19 19 18 18 18 17 17 17 17 16 16 16 16 15 15 15 15 15 15
19 19 20 20 20 20 20 20 19 19 20 20 18 18 18 17 17 17 17 17 17 18 18 18 18 18 18 18 18 17 17 17 17 17 16 16 16 15 15 15 15 15 14 14
21 21 21 21 21 20 20 20 20 20 19 19 19 18 18 17 17 17 17 17 17 17 18 18 18 18 18 18 18 17 17 17 16 16 16 15 15 15 15 15 15 14 14 14
20 20 21 21 21 20 20 20 20 19 18 17 18 17 17 16 16 16 16 17 17 17 17 17 18 18 18 18 17 17 17 16 16 16 16 15 15 15 15 15 14 14 14 14
21 21 21 21 21 21 21 20 19 18 18 17 17 16 16 16 16 16 16 16 16 17 17 17 17 18 18 17 17 17 16 16 16 16 15 15 15 15 15 14 14 14 14 14
20 20 20 21 20 20 19 18 18 16 15 17 17 16 16 15 15 15 15 16 16 16 17 17 17 17 17 17 17 16 16 16 15 15 15 15 15 14 14 14 14 14 13 13
19 20 20 20 20 19 17 17 16 16 15 16 16 16 15 16 16 15 15 16 16 16 17 16 16 16 16 16 16 16 16 15 15 15 15 14 14 14 14 14 14 13 13 13
18 18 19 19 19 19 17 17 16 16 15 15 16 15 15 16 16 16 16 16 16 16 16 16 16 16 16 16 16 16 15 15 15 14 14 14 14 14 14 13 13 13 13 13
17 18 19 19 19 18 17 16 15 14 15 15 15 15 15 16 15 15 15 15 15 15 16 16 16 15 15 15 15 15 15 15 14 14 14 14 14 13 13 13 13 13 13 12
17 17 18 18 18 17 17 15 13 14 14 15 15 15 15 15 15 14 14 15 15 15 15 15 15 15 15 15 15 15 15 14 14 14 14 13 13 13 13 13 13 13 12 12
17 16 16 17 17 17 16 15 13 12 13 14 14 14 15 14 14 14 14 15 15 15 15 15 15 15 15 15 15 14 14 14 14 14 14 13 13 13 13 13 12 12 12 12
15 14 14 16 17 17 16 16 14 14 14 13 13 13 15 14 14 13 14 14 14 15 15 15 14 14 14 14 14 14 14 14 14 14 14 13 13 13 13 13 12 12 12 12
15 14 14 15 15 16 16 15 14 12 12 12 13 14 15 14 14 14 14 14 14 14 14 14 14 14 14 14 14 14 14 14 14 13 13 13 13 13 13 12 12 12 12 12
15 13 14 15 15 15 15 15 15 13 12 13 13 14 14 13 13 13 13 14 14 14 14 14 14 14 14 14 14 14 14 14 13 13 13 13 13 13 13 12 12 12 12 12
14 14 14 14 15 15 15 15 15 14 13 13 13 13 14 13 13 13 13 13 13 13 13 13 13 13 13 13 13 13 13 13 13 13 13 13 13 12 12 12 12 12 12 12
12 14 14 14 15 15 15 15 15 15 14 13 13 13 13 13 13 13 13 13 13 13 13 13 13 13 13 13 13 13 13 13 13 13 13 13 12 12 12 12 12 12 12 11
11 12 13 13 13 15 14 14 14 14 14 13 13 13 13 12 12 13 13 13 13 13 13 13 13 13 13 13 13 13 13 13 13 13 13 13 12 12 12 12 12 12 11 11
11 11 10 11 13 14 14 15 14 14 14 13 13 12 12 12 13 13 13 13 13 13 13 13 13 13 13 13 13 13 13 13 13 13 13 12 12 12 12 12 12 11 11 11
10 11 10 10 12 13 14 14 14 13 13 13 12 12 12 13 13 13 14 13 13 13 13 13 13 13 13 13 13 13 13 13 13 13 13 12 12 12 12 12 12 11 11 11
10 10 10 11 13 13 14 14 14 14 13 13 12 12 12 12 11 12 13 13 13 13 13 13 13 13 13 13 13 13 13 13 13 13 12 12 12 12 12 12 12 11 11 11
11 11 11 11 12 12 13 14 14 13 13 13 13 12 12 11 12 13 13 13 13 13 13 13 13 13 13 13 13 13 13 13 13 13 12 12 12 12 12 12 12 12 11 11
11 11 11 10 11 12 13 13 13 12 13 13 13 13 13 13 13 13 13 13 13 13 13 13 13 13 13 13 13 13 13 13 13 12 12 12 12 12 12 12 12 12 11 11
10 10 10 10 11 13 13 13 14 14 13 13 13 13 13 13 13 13 13 13 13 13 13 13 13 13 13 13 13 13 13 13 12 12 12 12 12 12 12 12 12 12 11 11
10 10 10 10 11 12 13 14 14 14 13 13 13 13 13 13 13 13 13 13 13 13 13 13 13 13 13 13 13 13 13 13 12 12 12 12 12 12 12 12 12 12 11 11
10 10 10 10 11 12 14 14 14 14 14 13 13 13 13 13 13 13 13 13 13 13 13 13 13 13 13 13 13 13 13 13 12 12 12 12 12 12 12 12 12 12 12 11
9 10 10 10 12 11 13 14 14 13 13 13 13 13 13 13 13 13 13 13 13 13 13 13 13 13 13 13 13 13 13 12 12 12 12 12 12 12 12 12 12 12 11 11
Wind_Speed
3 4 2 6 5 5 3 3 7 7 4 1 1 3 5 6 6 5 4 3 2 3 2 0 1 2 2 3 4 5 5 5 5 4 4 3 3 2 1 2 2 3 3 3
5 3 6 4 2 2 2 3 5 5 3 1 1 3 3 5 4 3 3 4 4 4 3 1 1 2 2 3 4 4 5 5 5 4 4 3 2 2 2 1 1 2 3 3
3 4 3 2 3 3 2 3 4 4 3 3 2 4 5 5 4 5 5 3 4 3 3 2 2 2 2 3 4 6 6 5 4 4 4 3 2 1 0 1 1 2 2 2
2 4 3 3 3 2 5 4 3 2 1 2 2 2 5 5 7 9 8 6 5 5 3 2 1 2 3 3 4 5 6 5 4 5 5 5 4 3 3 2 2 2 1 1
3 3 4 4 5 2 4 4 2 1 2 2 4 2 5 5 7 8 8 8 7 5 4 3 2 2 1 2 3 4 4 3 3 4 5 5 4 3 2 1 1 1 1 1
4 3 2 3 4 3 2 4 4 5 4 2 2 1 4 3 5 8 8 8 8 7 6 5 4 2 1 2 2 2 3 3 3 4 4 5 5 4 3 2 2 1 1 1
8 6 5 3 5 7 7 6 5 7 5 4 2 1 3 4 5 5 7 8 7 6 5 5 4 3 2 0 2 2 3 3 2 3 3 4 5 5 5 4 3 2 2 2
4 6 6 5 2 2 3 5 4 2 4 5 3 1 3 4 6 7 6 5 6 6 6 5 4 3 2 1 2 2 3 3 3 3 2 2 3 3 3 3 3 3 3 3
1 5 5 4 4 3 3 2 2 4 1 2 4 4 4 6 9 9 9 7 7 7 6 5 4 3 2 2 2 2 3 2 2 2 2 2 2 3 3 3 3 3 3 3
1 4 6 6 5 6 4 3 4 3 1 3 5 3 4 8 9 10 10 8 8 8 7 6 4 3 3 1 1 2 2 2 2 2 2 2 2 3 3 3 3 3 3 3
3 0 6 5 4 4 4 4 4 3 3 2 3 5 2 4 6 8 8 7 7 8 7 6 5 4 2 1 0 1 2 2 2 2 2 2 1 2 2 2 3 3 3 3
2 3 2 5 4 2 1 1 3 1 2 2 2 6 5 6 7 7 7 7 7 6 5 5 4 4 2 1 0 1 1 1 2 2 2 2 1 2 2 2 3 2 3 3
2 4 3 7 7 6 4 2 2 3 2 1 1 6 5 8 9 8 7 7 6 6 6 5 5 4 2 1 1 1 1 1 2 2 2 2 1 2 2 3 2 2 3 3
3 3 4 4 5 4 5 4 2 3 1 2 5 8 10 11 11 11 9 8 6 5 5 6 6 5 3 2 1 1 1 1 1 2 2 2 2 2 3 2 2 2 3 3
4 1 2 4 5 2 3 5 3 1 3 4 6 7 9 10 10 9 7 7 6 6 6 6 6 6 4 2 2 1 1 0 1 1 1 1 2 1 1 1 1 2 2 1
3 1 1 3 3 3 3 4 4 2 2 4 6 7 7 8 7 7 7 6 6 5 6 7 7 6 5 3 2 2 2 1 1 2 1 1 0 0 0 0 1 1 2 1
1 2 1 3 6 4 3 3 2 3 3 2 4 7 8 8 9 8 7 6 5 5 5 6 6 6 5 3 2 2 2 1 1 2 1 0 1 1 0 0 2 2 2 2
4 3 2 1 4 2 5 3 2 3 3 3 5 7 7 7 8 6 5 4 5 6 6 6 6 6 5 4 2 2 2 0 1 1 0 0 1 1 1 2 2 1 1 1
3 5 3 2 1 6 5 3 1 2 4 3 5 8 7 7 5 4 3 3 5 5 5 5 5 5 4 4 2 1 1 0 0 1 1 1 1 1 1 1 0 0 1 1
5 4 4 2 1 4 5 5 4 0 4 4 5 7 7 6 5 6 6 6 6 6 5 5 5 4 4 4 2 1 1 1 1 2 3 2 2 2 1 1 1 0 1 1
3 3 1 2 3 6 5 5 2 1 6 7 6 6 6 4 5 7 8 7 6 5 5 4 4 4 4 3 1 1 1 2 3 2 1 1 1 2 2 1 1 1 0 1
2 1 2 2 2 5 3 2 1 5 6 6 6 6 6 7 7 6 6 6 6 5 5 4 4 4 4 2 1 1 3 4 2 1 1 1 1 1 1 2 1 0 0 0
4 5 4 6 6 6 4 5 6 5 6 7 6 7 6 6 6 6 5 5 5 5 5 4 3 4 4 2 1 2 4 3 1 1 1 1 1 1 1 2 1 0 0 0
4 2 2 4 7 7 8 7 6 5 7 8 7 7 5 5 6 5 5 5 5 4 4 4 3 3 4 4 2 3 3 1 0 0 1 1 0 0 0 1 2 1 1 1
5 2 3 5 7 8 6 6 7 8 8 7 6 5 5 5 5 5 4 4 4 4 4 3 2 3 5 4 4 3 2 0 0 1 1 1 1 1 1 1 2 3 3 4
5 6 5 6 7 5 8 8 8 8 7 7 6 6 5 4 5 4 4 4 4 4 3 3 4 4 4 4 4 4 2 1 1 1 1 1 1 1 1 1 1 2 3 4
Wind_Direction
54 62 268 250 216 218 236 271 288 280 286 23 10 356 353 16 36 22 5 353 331 283 276 265 145 160 160 169 171 173 167 167 153 155 165 169 195 208 216 220 210 201 200 195
33 304 265 252 229 200 222 289 295 305 351 74 60 14 11 32 30 29 6 344 327 319 340 338 215 188 182 179 178 178 175 172 170 174 169 165 174 194 215 239 239 221 215 208
203 263 316 27 13 11 292 247 271 281 343 40 44 354 356 358 13 18 13 6 348 311 283 273 231 219 186 177 173 181 185 181 174 161 137 123 102 74 94 255 259 249 224 213
261 306 358 12 348 3 299 283 270 290 25 327 42 302 317 335 352 0 353 349 336 327 303 292 268 233 208 190 180 180 182 178 174 164 159 162 180 205 219 215 220 256 239 216
331 347 15 1 320 310 272 333 4 19 122 32 18 102 301 346 345 334 332 337 332 335 341 328 311 252 204 162 168 173 166 168 175 173 172 172 193 209 208 191 196 253 286 238
315 331 16 305 324 349 338 29 38 43 63 20 323 120 302 320 310 320 328 335 338 346 2 2 357 357 86 121 135 142 148 166 180 179 181 182 190 190 186 195 209 228 248 263
345 346 347 357 358 3 35 53 20 2 7 276 313 92 259 298 311 311 312 321 336 347 356 358 357 351 341 157 160 161 167 184 183 183 190 196 198 194 199 204 207 207 222 239
9 327 335 359 10 321 13 102 133 241 259 291 335 258 259 321 331 332 331 330 347 350 347 342 341 324 314 266 188 173 181 200 186 186 199 205 201 201 205 205 205 208 219 232
355 291 317 349 356 73 42 46 153 147 275 296 296 303 313 352 352 349 347 347 342 340 337 337 335 323 304 262 219 197 194 209 196 196 205 214 205 199 203 200 203 215 226 232
154 289 314 325 21 27 81 120 66 78 49 296 302 307 308 327 330 335 337 332 329 334 338 338 333 325 306 277 232 193 189 208 206 192 204 228 220 206 200 199 212 226 238 239
76 117 322 0 26 343 16 39 69 90 147 180 294 289 294 306 314 321 320 321 327 332 338 338 333 322 314 328 89 181 188 194 198 191 193 207 222 205 194 199 220 236 253 246
66 104 316 294 296 319 92 85 115 91 293 189 226 277 306 320 317 322 329 333 331 330 337 343 336 327 323 333 326 231 189 193 217 205 180 185 223 209 205 223 239 243 258 261
81 84 11 345 349 4 26 22 77 116 111 156 238 278 317 340 338 336 333 328 331 337 343 350 347 336 326 324 302 297 249 222 216 188 164 162 217 225 225 238 257 255 261 268
105 100 154 213 256 295 319 334 19 101 122 267 250 278 309 327 329 328 328 325 328 337 343 347 339 334 333 325 306 297 303 227 182 165 161 160 218 231 228 237 252 266 264 253
81 113 230 246 264 283 306 313 334 247 219 227 275 282 292 309 311 310 317 325 337 344 342 339 335 335 337 341 334 339 334 308 154 156 169 206 217 213 212 263 281 299 295 262
60 111 344 302 298 324 319 328 333 308 271 263 291 288 291 310 321 325 324 328 332 335 332 329 330 334 334 337 338 341 334 336 135 160 210 230 213 161 142 277 323 17 9 18
69 120 74 292 313 348 312 288 287 285 270 255 277 283 312 325 325 315 310 314 315 321 324 325 324 323 325 322 318 313 319 329 144 170 198 197 83 87 159 64 65 50 30 35
140 120 132 307 5 282 252 258 250 271 269 256 276 297 308 303 302 295 291 301 311 317 323 321 319 320 319 316 310 320 337 342 147 156 186 344 96 94 81 75 63 42 53 44
145 138 120 109 294 285 299 311 282 259 286 296 299 308 318 324 331 320 311 318 303 302 305 305 308 307 309 318 315 351 346 357 123 213 234 237 205 170 120 93 105 76 65 8
63 92 115 124 219 268 268 306 305 172 296 303 313 308 320 343 340 302 309 318 313 314 313 314 322 325 324 322 339 356 318 311 263 254 244 235 212 187 196 217 201 109 107 303
19 33 117 180 229 268 276 306 16 59 284 301 298 296 299 286 261 279 301 308 305 306 307 317 327 327 315 315 351 318 296 267 267 272 267 244 213 201 197 181 159 153 113 9
206 203 219 160 223 270 305 19 157 245 275 287 286 282 280 284 288 293 301 302 309 316 318 325 331 324 320 322 332 308 280 272 287 316 310 277 238 228 188 161 173 118 117 356
213 199 201 200 225 259 274 252 258 254 273 277 271 281 279 286 291 296 295 298 305 306 310 316 314 317 320 314 279 261 284 292 296 347 310 289 250 207 183 172 187 217 218 246
279 172 190 265 272 277 280 280 283 276 271 277 276 283 271 272 283 290 294 299 307 305 301 309 314 316 310 304 295 265 283 292 164 269 301 305 242 255 236 193 198 204 229 245
249 222 235 265 281 300 291 283 294 299 296 294 290 283 266 265 275 277 283 290 292 295 298 298 293 294 298 307 309 303 297 60 158 253 280 291 252 223 239 233 228 223 234 222
218 200 206 244 252 248 273 283 294 292 288 285 287 294 291 265 262 275 278 280 285 290 298 303 297 293 297 303 301 303 291 182 174 239 255 261 258 244 226 229 297 287 253 267
Height
1495 1500 1504 1500 1498 1497 1499 1501 1503 1496 1488 1490 1492 1492 1489 1486 1484 1484 1484 1484 1483 1483 1483 1484 1485 1485 1487 1488 1488 1489 1490 1492 1492 1493 1495 1496 1497 1498 1499 1499 1500 1501 1501 1502
1501 1503 1496 1493 1493 1495 1498 1501 1501 1494 1487 1489 1493 1493 1490 1488 1488 1487 1485 1484 1483 1482 1482 1482 1483 1484 1484 1486 1486 1487 1488 1489 1490 1491 1493 1493 1495 1496 1497 1498 1498 1499 1499 1499
1501 1498 1492 1492 1494 1496 1496 1499 1498 1496 1491 1490 1493 1496 1493 1489 1488 1487 1486 1484 1483 1482 1481 1480 1481 1482 1483 1483 1483 1484 1486 1488 1489 1490 1491 1492 1493 1493 1495 1495 1496 1497 1497 1497
1498 1494 1493 1494 1494 1495 1499 1490 1491 1493 1499 1505 1500 1511 1499 1494 1490 1487 1486 1485 1483 1482 1480 1479 1479 1480 1481 1481 1482 1483 1484 1486 1487 1488 1489 1490 1491 1491 1492 1493 1494 1494 1495 1495
1499 1495 1495 1497 1494 1492 1492 1489 1491 1494 1499 1506 1505 1511 1507 1497 1495 1491 1488 1485 1483 1481 1479 1479 1479 1480 1480 1480 1481 1481 1482 1484 1485 1486 1487 1488 1489 1489 1490 1491 1491 1492 1492 1492
1498 1495 1495 1495 1492 1491 1491 1492 1495 1501 1507 1515 1509 1513 1513 1503 1499 1493 1489 1486 1483 1481 1479 1479 1479 1479 1479 1479 1480 1480 1481 1482 1483 1484 1485 1486 1487 1487 1488 1488 1489 1489 1489 1490
1506 1499 1495 1494 1495 1494 1496 1506 1519 1520 1525 1520 1509 1512 1511 1498 1495 1493 1490 1486 1484 1482 1480 1479 1478 1478 1478 1478 1478 1479 1480 1481 1482 1483 1483 1484 1484 1485 1486 1486 1486 1486 1487 1487
1517 1515 1501 1497 1499 1501 1503 1508 1525 1531 1531 1523 1512 1513 1505 1496 1493 1491 1489 1487 1484 1482 1481 1479 1478 1477 1477 1477 1477 1478 1478 1479 1480 1481 1481 1482 1483 1483 1483 1484 1484 1484 1485 1486
1519 1516 1502 1499 1498 1499 1505 1511 1512 1523 1524 1528 1519 1510 1501 1494 1493 1490 1488 1485 1484 1482 1480 1478 1477 1476 1476 1476 1476 1477 1477 1477 1478 1479 1480 1480 1481 1481 1481 1482 1482 1482 1483 1483
1513 1517 1507 1503 1500 1501 1504 1510 1518 1525 1531 1532 1522 1516 1513 1500 1496 1491 1488 1485 1483 1481 1480 1478 1477 1475 1475 1475 1475 1475 1475 1476 1476 1477 1478 1478 1479 1479 1479 1480 1480 1480 1481 1481
1512 1519 1515 1509 1509 1511 1509 1513 1519 1527 1528 1532 1532 1523 1504 1501 1496 1493 1489 1486 1484 1482 1479 1477 1476 1475 1474 1474 1473 1473 1474 1474 1475 1475 1475 1476 1477 1477 1477 1478 1478 1478 1478 1478
1514 1522 1525 1517 1509 1507 1508 1512 1518 1526 1527 1529 1532 1524 1499 1498 1495 1492 1489 1486 1484 1482 1480 1478 1476 1475 1473 1472 1472 1472 1473 1473 1473 1473 1474 1474 1475 1475 1475 1475 1476 1476 1476 1476
1515 1523 1531 1526 1521 1514 1513 1513 1515 1521 1528 1530 1530 1521 1498 1496 1493 1490 1488 1486 1483 1481 1479 1478 1476 1474 1472 1471 1471 1471 1471 1471 1472 1472 1472 1472 1473 1473 1473 1474 1474 1474 1473 1473
1513 1523 1529 1533 1527 1519 1517 1514 1514 1519 1527 1527 1523 1514 1502 1498 1495 1491 1488 1485 1482 1481 1480 1478 1476 1474 1472 1471 1471 1471 1471 1471 1470 1471 1471 1471 1472 1472 1472 1472 1472 1472 1471 1471
1515 1523 1522 1521 1518 1517 1516 1514 1514 1516 1518 1521 1516 1511 1504 1499 1496 1492 1489 1486 1483 1481 1480 1478 1476 1474 1473 1471 1471 1470 1470 1470 1470 1470 1470 1470 1470 1470 1470 1470 1470 1470 1470 1470
1518 1522 1522 1521 1516 1516 1516 1513 1512 1513 1513 1513 1511 1508 1500 1497 1494 1491 1488 1485 1483 1481 1480 1478 1477 1475 1473 1472 1471 1470 1470 1470 1470 1470 1470 1470 1469 1469 1469 1469 1469 1468 1468 1468
1522 1524 1527 1528 1521 1517 1521 1514 1513 1512 1510 1511 1512 1507 1499 1496 1493 1491 1488 1485 1483 1482 1480 1478 1476 1475 1473 1473 1472 1471 1470 1470 1470 1470 1470 1469 1469 1469 1469 1469 1469 1468 1468 1467
1522 1526 1532 1532 1526 1527 1520 1509 1508 1509 1507 1507 1505 1502 1499 1496 1493 1490 1488 1486 1484 1481 1480 1478 1476 1475 1474 1473 1472 1471 1470 1470 1470 1469 1470 1469 1469 1469 1469 1469 1469 1469 1468 1468
1518 1524 1531 1535 1532 1526 1515 1509 1508 1509 1508 1505 1503 1500 1497 1495 1491 1489 1488 1486 1484 1482 1481 1479 1477 1475 1473 1472 1472 1471 1470 1470 1470 1470 1470 1469 1469 1469 1469 1469 1469 1469 1468 1467
1521 1522 1529 1533 1530 1529 1517 1508 1505 1507 1509 1503 1501 1499 1497 1494 1495 1490 1487 1485 1484 1482 1480 1478 1476 1475 1473 1472 1472 1471 1471 1470 1470 1470 1470 1470 1469 1469 1469 1469 1469 1469 1468 1467
1526 1527 1530 1532 1531 1522 1511 1507 1506 1515 1513 1503 1500 1498 1496 1494 1493 1489 1486 1484 1483 1481 1479 1478 1476 1474 1474 1473 1472 1471 1471 1470 1470 1470 1470 1469 1469 1469 1469 1469 1469 1468 1468 1467
1527 1529 1530 1532 1531 1525 1509 1508 1510 1510 1503 1501 1498 1496 1494 1492 1489 1487 1485 1483 1482 1480 1478 1477 1475 1474 1473 1473 1472 1471 1470 1470 1470 1469 1469 1469 1468 1469 1469 1468 1468 1468 1467 1466
1524 1524 1524 1525 1522 1511 1508 1507 1506 1504 1501 1498 1496 1493 1491 1489 1487 1485 1483 1482 1481 1479 1478 1477 1475 1474 1473 1473 1472 1471 1470 1470 1469 1469 1468 1468 1468 1468 1468 1468 1468 1467 1467 1466
1520 1518 1519 1518 1511 1508 1506 1504 1503 1501 1498 1496 1494 1491 1489 1487 1486 1484 1482 1481 1480 1479 1477 1476 1475 1474 1473 1472 1471 1470 1470 1469 1469 1468 1468 1468 1468 1467 1467 1467 1467 1467 1466 1465
1519 1517 1517 1515 1509 1506 1503 1502 1500 1498 1495 1493 1491 1489 1488 1486 1484 1482 1481 1480 1479 1478 1477 1475 1474 1473 1472 1471 1471 1470 1469 1469 1468 1468 1468 1468 1467 1467 1467 1467 1466 1465 1465 1464
1514 1514 1515 1512 1506 1506 1502 1499 1498 1495 1493 1491 1488 1486 1485 1484 1482 1481 1480 1479 1477 1476 1476 1475 1474 1473 1472 1471 1470 1469 1469 1469 1468 1468 1468 1467 1467 1466 1466 1465 1465 1464 1463 1463